Weather History for Porterville, CA

Change the Weather History Date:

Friday, January 18, 2013

  Actual Average Record
Temperature  
Mean Temperature 46 °F -  
Max Temperature 64 °F 57 °F 71 °F (1998)
Min Temperature 28 °F 37 °F 24 °F (1949)
Degree Days  
Heating Degree Days 19    
Moisture  
Dew Point 34 °F    
Average Humidity 72    
Maximum Humidity 93    
Minimum Humidity 37    
Precipitation  
Precipitation 0.00 in - - ()
Sea Level Pressure  
Sea Level Pressure 30.21 in    
Wind  
Wind Speed 3 mph (East)    
Max Wind Speed 7 mph    
Max Gust Speed -    
Visibility 8 miles    
Events      
Averages and records for this station are not official NWS values.
T = Trace of Precipitation, MM = Missing Value Source: NWS Daily Summary

Daily Weather History Graph

Daily Weather History Graph

Search for Another Location

Airport:

Trip Planner

Search our weather history database for the weather conditions in past years. The results will help you decide how hot, cold, wet, or windy it might be!

Date:

Astronomy

Jan. 18, 2013 Rise Set
Actual Time 7:05 AM PST 5:08 PM PST
Civil Twilight 6:37 AM PST 5:36 PM PST
Nautical Twilight 6:05 AM PST 6:08 PM PST
Astronomical Twilight 5:35 AM PST 6:38 PM PST
Moon 11:01 AM PST (1/18) No Moon Set
Length of Visible Light 10h 59m
Length of Day
10h 03m
Waxing Crescent, 48% of the Moon is Illuminated
Jan 18
Waxing Crescent
Jan 18
First Quarter
Jan 26
Full
Feb 3
Last Quarter
Feb 9
New

Hourly Weather History & Observations

Time (PST) Temp. Windchill Dew Point Humidity Pressure Visibility Wind Dir Wind Speed Gust Speed Precip Events Conditions
12:15 AM 33.8 °F 30.8 °F 30.2 °F 87% 30.22 in 8.0 mi SE 3.5 mph - N/A   Clear
12:35 AM 33.8 °F 28.6 °F 30.2 °F 87% 30.22 in 10.0 mi ESE 5.8 mph - N/A   Clear
12:55 AM 35.6 °F 30.7 °F 30.2 °F 81% 30.22 in 8.0 mi ESE 5.8 mph - N/A   Clear
1:15 AM 35.6 °F - 30.2 °F 81% 30.22 in 10.0 mi Calm Calm - N/A   Clear
1:35 AM 33.8 °F 30.8 °F 30.2 °F 87% 30.22 in 8.0 mi ESE 3.5 mph - N/A   Clear
1:55 AM 33.8 °F - 30.2 °F 87% 30.22 in 10.0 mi Calm Calm - N/A   Clear
2:15 AM 33.8 °F 30.8 °F 28.4 °F 81% 30.22 in 10.0 mi ESE 3.5 mph - N/A   Clear
2:35 AM 33.8 °F 30.8 °F 28.4 °F 81% 30.22 in 10.0 mi ESE 3.5 mph - N/A   Clear
2:55 AM 33.8 °F - 28.4 °F 81% 30.22 in 10.0 mi Calm Calm - N/A   Clear
3:15 AM 32.0 °F 28.7 °F 28.4 °F 87% 30.22 in 10.0 mi ESE 3.5 mph - N/A   Clear
3:35 AM 32.0 °F 27.5 °F 28.4 °F 87% 30.22 in 10.0 mi ESE 4.6 mph - N/A   Clear
3:55 AM 32.0 °F - 28.4 °F 87% 30.22 in 10.0 mi Calm Calm - N/A   Clear
4:15 AM 30.2 °F - 26.6 °F 86% 30.22 in 10.0 mi Calm Calm - N/A   Clear
4:35 AM 30.2 °F - 26.6 °F 86% 30.22 in 10.0 mi Calm Calm - N/A   Clear
4:55 AM 32.0 °F 28.7 °F 26.6 °F 80% 30.21 in 10.0 mi East 3.5 mph - N/A   Clear
5:15 AM 30.2 °F - 26.6 °F 86% 30.22 in 10.0 mi Calm Calm - N/A   Clear
5:35 AM 30.2 °F - 28.4 °F 93% 30.22 in 10.0 mi Calm Calm - N/A   Clear
5:55 AM 30.2 °F - 26.6 °F 86% 30.22 in 10.0 mi Calm Calm - N/A   Clear
6:15 AM 30.2 °F 26.7 °F 26.6 °F 86% 30.22 in 10.0 mi SSE 3.5 mph - N/A   Clear
6:35 AM 30.2 °F 26.7 °F 26.6 °F 86% 30.22 in 10.0 mi SE 3.5 mph - N/A   Clear
6:55 AM 28.4 °F - 24.8 °F 86% 30.22 in 10.0 mi Calm Calm - N/A   Clear
7:15 AM 30.2 °F - 26.6 °F 86% 30.22 in 10.0 mi Calm Calm - N/A   Clear
7:55 AM 32.0 °F - 28.4 °F 87% 30.24 in 9.0 mi Calm Calm - N/A   Clear
8:15 AM 33.8 °F - 30.2 °F 87% 30.25 in 10.0 mi Calm Calm - N/A   Clear
8:35 AM 37.4 °F - 33.8 °F 87% 30.25 in 10.0 mi Calm Calm - N/A   Clear
8:55 AM 42.8 °F - 35.6 °F 76% 30.26 in 10.0 mi Calm Calm - N/A   Clear
9:15 AM 44.6 °F - 35.6 °F 71% 30.26 in 7.0 mi Calm Calm - N/A   Clear
9:35 AM 44.6 °F - 35.6 °F 71% 30.27 in 5.0 mi Calm Calm - N/A   Clear
9:55 AM 46.4 °F - 37.4 °F 71% 30.27 in 5.0 mi Calm Calm - N/A   Clear
10:15 AM 48.2 °F - 37.4 °F 66% 30.27 in 4.0 mi Calm Calm - N/A   Clear
10:35 AM 48.2 °F - 37.4 °F 66% 30.27 in 4.0 mi Calm Calm - N/A   Clear
10:55 AM 51.8 °F - 39.2 °F 62% 30.25 in 5.0 mi North 3.5 mph - N/A   Clear
11:15 AM 53.6 °F - 37.4 °F 54% 30.25 in 5.0 mi Calm Calm - N/A   Clear
11:35 AM 53.6 °F - 39.2 °F 58% 30.24 in 5.0 mi West 3.5 mph - N/A   Clear
11:55 AM 57.2 °F - 39.2 °F 51% 30.22 in 5.0 mi WNW 3.5 mph - N/A   Clear
12:15 PM 57.2 °F - 39.2 °F 51% 30.21 in 6.0 mi West 3.5 mph - N/A   Clear
12:35 PM 59.0 °F - 39.2 °F 48% 30.20 in 7.0 mi NNW 3.5 mph - N/A   Clear
12:55 PM 59.0 °F - 39.2 °F 48% 30.19 in 7.0 mi WNW 3.5 mph - N/A   Clear
1:15 PM 60.8 °F - 39.2 °F 45% 30.18 in 7.0 mi NW 4.6 mph - N/A   Clear
1:35 PM 60.8 °F - 41.0 °F 48% 30.18 in 7.0 mi WNW 4.6 mph - N/A   Clear
1:55 PM 62.6 °F - 41.0 °F 45% 30.18 in 7.0 mi NW 5.8 mph - N/A   Clear
2:15 PM 62.6 °F - 41.0 °F 45% 30.17 in 7.0 mi NW 5.8 mph - N/A   Clear
2:35 PM 62.6 °F - 39.2 °F 42% 30.17 in 8.0 mi North 4.6 mph - N/A   Clear
2:55 PM 64.4 °F - 37.4 °F 37% 30.17 in 10.0 mi NNW 5.8 mph - N/A   Clear
3:15 PM 64.4 °F - 39.2 °F 40% 30.16 in 9.0 mi NNW 6.9 mph - N/A   Clear
3:35 PM 64.4 °F - 39.2 °F 40% 30.16 in 9.0 mi NW 6.9 mph - N/A   Clear
3:55 PM 64.4 °F - 39.2 °F 40% 30.16 in 10.0 mi NW 4.6 mph - N/A   Clear
4:15 PM 62.6 °F - 39.2 °F 42% 30.16 in 10.0 mi WNW 5.8 mph - N/A   Clear
4:35 PM 60.8 °F - 41.0 °F 48% 30.17 in 8.0 mi WNW 5.8 mph - N/A   Clear
4:55 PM 57.2 °F - 41.0 °F 55% 30.17 in 8.0 mi WNW 5.8 mph - N/A   Clear
5:15 PM 55.4 °F - 41.0 °F 58% 30.17 in 7.0 mi WNW 5.8 mph - N/A   Clear
5:35 PM 51.8 °F - 39.2 °F 62% 30.18 in 6.0 mi Calm Calm - N/A   Clear
5:55 PM 50.0 °F - 39.2 °F 66% 30.18 in 7.0 mi Calm Calm - N/A   Clear
6:15 PM 50.0 °F - 41.0 °F 71% 30.18 in 7.0 mi Calm Calm - N/A   Clear
6:35 PM 46.4 °F - 39.2 °F 76% 30.19 in 7.0 mi Calm Calm - N/A   Clear
6:55 PM 44.6 °F 42.2 °F 39.2 °F 81% 30.19 in 6.0 mi SSE 4.6 mph - N/A   Clear
7:35 PM 42.8 °F 38.6 °F 35.6 °F 76% 30.19 in 6.0 mi SE 6.9 mph - N/A   Clear
7:55 PM 42.8 °F 40.1 °F 37.4 °F 81% 30.19 in 6.0 mi SE 4.6 mph - N/A   Clear
8:15 PM 41.0 °F 39.0 °F 35.6 °F 81% 30.19 in 6.0 mi SE 3.5 mph - N/A   Clear
8:35 PM 39.2 °F 35.9 °F 35.6 °F 87% 30.20 in 7.0 mi SE 4.6 mph - N/A   Clear
8:55 PM 39.2 °F 37.0 °F 35.6 °F 87% 30.20 in 7.0 mi ESE 3.5 mph - N/A   Clear
9:15 PM 39.2 °F 35.0 °F 35.6 °F 87% 30.20 in 7.0 mi SE 5.8 mph - N/A   Clear
9:35 PM 39.2 °F - 33.8 °F 81% 30.21 in 7.0 mi Calm Calm - N/A   Clear
9:55 PM 37.4 °F 34.9 °F 33.8 °F 87% 30.21 in 7.0 mi ESE 3.5 mph - N/A   Clear
10:15 PM 37.4 °F - 33.8 °F 87% 30.21 in 8.0 mi Calm Calm - N/A   Clear
10:35 PM 37.4 °F 33.8 °F 32.0 °F 81% 30.21 in 8.0 mi ESE 4.6 mph - N/A   Clear
10:55 PM 35.6 °F 30.7 °F 32.0 °F 87% 30.21 in 7.0 mi ESE 5.8 mph - N/A   Clear
11:15 PM 37.4 °F 32.8 °F 33.8 °F 87% 30.21 in 8.0 mi East 5.8 mph - N/A   Clear
11:35 PM 37.4 °F - 32.0 °F 81% 30.21 in 9.0 mi Calm Calm - N/A   Clear
11:55 PM 37.4 °F 34.9 °F 32.0 °F 81% 30.21 in 10.0 mi East 3.5 mph - N/A   Clear